Temperature
12 12 12 11 11 10 10 9 8 8 8 7 7 6 6 6 6 5 5 5 4 4 4 4 3 3 3 3 3 4 4 4 4 3 3 2 2 1 1 1 1 1 1
11 11 11 10 10 9 9 8 8 7 7 6 6 6 5 5 5 4 4 4 3 3 3 3 3 3 2 2 2 2 2 2 2 2 2 2 1 1 1 1 1 1 1
10 10 10 9 9 8 8 7 7 6 6 5 5 5 5 4 4 4 3 3 2 2 2 2 2 2 2 2 1 1 1 1 1 1 1 1 1 1 1 1 1 1 1
9 9 8 8 7 7 6 6 6 5 5 5 5 4 4 3 3 3 2 2 2 2 1 1 1 1 1 1 1 1 1 1 1 0 1 1 1 1 1 1 1 1 1
8 8 7 7 6 6 6 5 5 5 4 4 4 3 3 3 2 2 2 1 1 1 1 1 1 1 1 0 0 -0 -0 0 0 0 0 1 1 1 0 0 0 0 0
7 6 6 6 6 5 5 4 4 4 4 3 3 2 2 2 2 2 2 1 1 1 1 1 1 0 0 -0 -0 -0 -0 -0 -0 0 0 0 0 0 0 0 0 0 0
6 5 5 5 5 4 4 4 3 3 2 2 2 2 1 1 2 1 1 1 0 0 0 0 0 0 -0 -0 -0 -0 -0 -0 -0 0 0 0 0 0 -0 -0 -0 -0 -0
5 4 4 4 4 3 3 3 2 2 2 1 1 1 1 0 1 1 1 0 0 0 0 0 -0 -0 -0 -1 -0 -0 0 0 0 0 0 0 0 0 -0 -0 -0 -0 -0
4 4 4 3 3 3 3 2 2 2 1 1 1 0 0 -0 0 0 0 -0 -0 -0 -0 -0 -0 -0 -1 -1 -0 0 0 1 1 0 0 0 -0 -0 -0 -0 -0 -0 -0
3 3 3 3 3 2 2 2 1 1 1 1 0 -0 -0 -1 -1 -0 -0 -1 -1 -0 -0 -0 -0 -1 -0 -0 -0 0 0 1 1 1 0 0 0 -0 -0 -0 -0 -0 -1
3 3 3 3 2 2 1 1 1 1 1 0 0 -0 -1 -1 -1 -1 -1 -1 -1 -1 -1 -0 -0 -0 -0 -0 0 0 0 0 0 0 0 0 -0 -0 -0 -0 -0 -0 -1
3 3 3 2 3 2 1 1 1 1 1 1 0 -0 -1 -1 -1 -2 -2 -2 -1 -1 -1 -1 -0 -0 0 0 0 1 1 1 1 0 0 -0 -0 -0 -0 -0 -0 -0 -0
3 3 3 2 2 2 2 2 2 1 1 1 1 0 -1 -1 -1 -2 -2 -2 -2 -1 -1 -1 -0 0 0 1 1 1 1 1 1 0 0 -0 -0 -1 -1 -1 -0 -0 -0
3 3 3 3 2 2 2 2 2 2 1 1 0 -0 -1 -1 -1 -2 -2 -2 -1 -1 -1 -0 -0 0 1 1 1 1 1 1 1 1 0 -0 -0 -1 -1 -1 -1 -1 -0
3 3 3 3 3 2 2 2 2 1 0 0 -0 -1 -1 -1 -2 -2 -2 -2 -2 -1 -1 -0 0 0 1 1 1 2 2 1 1 1 1 0 -0 -1 -1 -1 -1 -1 -1
3 3 4 3 3 3 3 2 1 1 1 0 -0 -1 -1 -2 -2 -2 -2 -1 -1 -1 -1 -0 -0 0 1 1 1 2 2 2 2 1 1 0 -0 -0 -1 -1 -1 -1 -0
4 4 4 4 3 3 3 3 2 1 0 -0 -1 -1 -1 -1 -1 -1 -1 -1 -1 -1 -0 -0 0 0 1 1 2 2 2 2 2 2 1 1 0 -0 -0 -0 -0 -0 -0
4 4 4 4 3 3 3 3 2 2 1 0 -1 -1 -1 -1 -1 -1 -1 -1 -1 -1 -0 -0 0 1 1 1 2 2 2 2 2 2 2 1 1 0 0 -0 -0 -0 -1
4 4 4 4 4 3 3 3 2 2 1 0 -0 -1 -1 -1 -1 -1 -1 -1 -1 -0 -0 0 0 1 1 2 2 2 2 2 3 2 2 2 1 1 0 0 -0 -0 -1
4 3 3 4 4 3 3 3 2 1 1 -0 -1 -1 -1 -1 -1 -1 -1 -1 -0 -0 0 0 1 1 2 2 2 2 3 3 3 3 3 2 2 2 1 1 0 0 0
4 4 3 4 3 3 3 2 2 1 0 -0 -1 -1 -1 -1 -1 -1 -1 -0 -0 -0 0 1 1 2 2 2 2 3 3 3 3 3 3 3 3 2 2 2 2 1 1
4 4 4 3 3 2 2 2 1 1 0 -0 -1 -1 -1 -1 -1 -1 -0 -0 0 0 1 1 2 2 2 2 3 3 3 3 3 3 3 3 3 3 3 3 3 3 3
4 4 3 3 2 1 2 1 1 1 0 -0 -0 -1 -1 -1 -1 -0 -0 0 0 1 1 1 2 2 2 3 3 3 3 3 3 3 4 4 4 4 4 4 3 3 3
4 3 3 3 2 2 2 1 1 1 1 0 -0 -0 -0 -0 -0 -0 -0 0 1 1 1 2 2 2 3 3 3 4 4 4 4 4 4 4 4 4 4 4 4 4 4
3 3 2 2 2 2 2 1 1 1 0 0 -0 -0 -0 -0 -0 -0 0 0 1 1 1 2 2 3 3 4 4 4 4 4 4 4 4 4 4 4 4 4 5 5 5
3 2 2 2 2 1 1 1 1 0 0 -0 -0 -0 -0 -0 -0 0 0 1 1 1 2 2 2 3 3 4 4 4 4 4 4 4 4 5 5 4 5 5 5 5 5
Wind_Speed
13 14 14 14 14 14 13 13 12 11 10 9 8 7 7 6 4 3 2 1 2 4 5 6 8 9 9 9 10 10 11 12 15 15 14 14 16 18 18 21 22 22 22
14 14 14 14 14 14 13 13 12 11 9 9 8 7 6 5 3 2 1 2 4 5 7 8 9 9 10 11 10 11 11 12 14 17 16 15 17 18 17 17 18 19 19
15 15 15 15 15 14 13 13 12 11 10 8 7 7 5 4 3 2 2 3 5 6 8 9 10 10 11 10 11 11 11 12 12 15 16 15 15 15 16 16 16 15 18
15 15 15 14 14 14 13 12 11 10 9 7 6 5 3 2 2 2 4 5 6 8 8 9 10 10 10 11 11 12 12 13 14 14 14 14 14 15 13 13 13 13 14
14 15 14 14 13 12 12 11 10 8 7 5 4 3 2 2 4 6 6 6 8 9 9 9 9 9 10 10 11 13 14 13 13 13 13 13 13 13 12 11 13 13 14
14 13 13 12 12 11 10 9 8 6 5 4 3 2 2 4 8 8 9 9 9 10 10 9 9 9 8 11 14 15 17 17 15 14 13 13 15 14 12 12 12 12 9
12 12 11 11 10 9 8 7 6 5 4 3 3 3 3 6 5 6 9 11 10 9 9 9 9 9 10 11 13 17 18 17 18 16 15 15 15 13 13 13 12 13 12
11 10 9 9 9 7 7 6 5 3 3 3 3 3 3 5 6 7 11 11 9 9 9 10 10 11 9 12 16 16 16 15 15 14 13 14 13 13 12 13 13 11 12
10 9 8 7 7 6 6 5 4 4 3 3 3 3 3 4 5 6 11 9 7 10 10 9 10 10 9 12 15 15 16 15 15 15 17 18 19 18 14 10 10 9 9
9 8 7 7 6 6 6 5 4 3 2 2 3 3 3 3 4 4 11 8 8 9 9 10 6 6 12 14 14 13 14 15 16 15 12 10 10 9 10 8 7 7 7
9 8 8 7 7 6 5 4 3 3 3 3 3 2 2 3 2 2 8 8 9 10 9 9 7 8 13 15 14 12 13 16 14 12 10 9 9 8 7 6 5 5 6
9 9 8 6 6 6 5 4 3 2 1 2 3 4 4 3 4 4 7 8 10 11 9 9 9 12 16 17 13 12 16 14 9 9 9 8 8 9 8 8 7 6 5
8 7 7 6 5 4 3 2 2 2 4 4 4 5 6 6 3 3 7 10 10 10 9 10 13 15 16 12 8 13 12 8 9 9 8 8 8 8 9 8 8 7 6
6 5 4 4 3 3 1 2 3 4 5 5 5 6 6 6 6 9 9 9 9 9 10 10 11 11 10 10 10 9 7 7 7 7 7 7 7 7 8 7 6 7 6
4 3 2 2 2 1 1 3 4 5 6 6 7 7 7 8 9 11 10 9 10 10 12 9 8 9 10 10 10 10 9 9 7 6 6 6 6 7 7 7 6 6 6
2 2 1 1 1 1 2 2 4 2 5 1 3 6 6 6 10 11 11 12 13 13 10 7 8 8 9 10 10 11 11 10 10 8 6 5 6 6 7 7 7 7 7
1 1 1 1 2 2 3 4 1 4 6 5 3 1 6 9 10 10 12 13 11 10 6 7 7 8 9 10 10 11 11 12 11 9 8 6 5 6 6 7 8 7 8
1 1 2 2 3 4 4 4 4 3 2 2 4 2 6 9 9 10 12 11 6 6 6 6 7 8 9 10 10 11 11 11 11 10 9 7 6 6 6 8 9 10 9
4 3 3 4 3 3 3 3 3 4 4 4 5 5 6 8 6 6 8 6 6 6 7 7 7 8 9 10 10 11 11 10 11 11 10 9 8 7 8 8 8 9 9
1 3 4 4 2 2 3 3 3 4 5 5 5 6 7 7 6 7 7 6 6 6 7 7 8 8 9 10 11 11 11 10 11 11 11 10 9 8 9 9 9 8 8
3 3 4 2 3 3 3 3 4 5 5 5 4 5 5 5 5 6 6 6 6 7 7 8 8 9 10 10 11 12 12 10 10 11 11 11 11 10 9 8 8 8 8
3 3 3 4 4 4 3 4 4 4 4 5 4 4 3 4 5 6 6 6 6 6 6 7 8 8 9 11 11 11 11 10 9 9 10 10 11 11 11 10 10 9 9
3 3 4 4 4 3 2 4 4 4 4 5 5 5 5 5 6 6 7 7 7 7 8 8 8 9 13 13 12 10 10 8 8 8 9 9 10 10 10 11 13 13 13
3 3 4 4 3 3 3 3 4 4 5 5 5 5 5 6 7 8 7 7 8 9 9 9 10 12 16 15 13 12 12 10 9 7 9 9 10 9 9 9 10 10 10
4 4 4 4 3 3 3 3 4 5 5 5 5 5 6 6 7 7 7 8 9 9 11 11 11 13 15 16 16 15 15 13 10 10 8 7 9 9 9 10 9 9 10
5 4 4 4 4 4 4 4 5 5 5 5 5 6 6 7 8 8 7 8 8 9 10 11 13 15 17 16 18 18 16 14 12 13 10 8 9 10 10 9 10 10 11
Wind_Direction
94 97 100 103 106 107 109 111 112 113 116 116 116 115 115 115 113 106 77 46 332 328 321 317 312 311 305 307 300 295 293 295 296 299 302 303 300 294 293 291 291 290 289
96 97 98 102 104 105 105 106 107 106 105 107 109 109 109 107 101 83 40 353 335 327 323 317 312 311 307 298 301 300 300 299 295 298 300 301 298 297 294 292 292 291 292
99 99 99 101 102 103 104 104 103 101 97 96 98 102 103 100 88 50 360 341 332 325 320 315 313 309 304 306 305 300 299 297 296 296 298 299 298 297 298 297 299 298 295
99 99 99 99 100 100 98 95 94 94 95 96 99 103 103 90 52 9 346 336 327 322 317 312 307 306 305 307 303 301 302 303 300 296 295 298 299 302 305 304 301 299 297
100 98 97 96 95 94 93 92 92 94 99 105 107 103 88 66 37 9 341 329 324 318 314 310 305 305 298 298 304 308 307 303 301 297 297 300 300 304 304 302 297 298 293
102 101 100 98 94 93 93 93 95 97 101 100 89 73 56 62 62 22 340 326 317 313 315 313 307 291 297 293 285 292 296 295 296 296 295 294 296 299 299 297 296 296 296
103 102 102 102 100 101 105 106 108 110 103 85 61 51 71 85 52 3 339 315 308 314 313 310 309 315 308 310 313 306 295 283 280 285 288 290 294 297 300 300 299 297 294
104 104 108 112 114 118 117 114 112 100 84 73 55 40 45 85 50 356 326 299 304 311 309 306 305 308 321 331 318 307 304 302 300 295 293 294 294 297 299 297 297 296 295
112 115 120 123 123 122 114 106 94 87 78 64 49 22 14 89 66 352 324 312 313 314 313 311 307 309 347 331 313 306 308 309 305 294 285 283 282 279 278 289 300 306 311
117 117 115 112 109 104 98 91 86 81 65 34 40 13 357 21 87 349 327 317 321 319 317 313 305 331 329 318 314 307 309 317 318 317 311 304 296 289 267 276 303 310 314
119 112 106 102 98 95 93 86 79 66 48 25 15 6 6 5 101 61 334 330 329 319 315 316 328 348 321 311 305 304 311 311 311 320 329 331 329 327 325 322 323 310 309
118 109 102 97 94 99 98 90 69 31 35 20 11 359 359 358 360 2 317 304 305 311 313 322 332 329 312 302 302 310 307 304 320 337 344 344 342 341 339 337 334 319 295
118 107 103 102 98 97 95 86 63 20 8 6 2 357 353 349 347 306 305 301 291 305 318 317 306 300 300 301 298 299 303 321 338 342 347 349 349 347 347 346 344 342 331
121 115 115 115 121 110 51 23 14 11 7 2 359 353 346 343 351 350 342 335 329 322 327 316 299 292 302 318 316 319 331 339 334 336 341 346 355 359 360 355 349 348 348
130 127 127 114 85 86 51 25 3 31 28 351 353 352 348 345 357 341 326 330 331 331 325 321 341 347 346 344 339 339 339 341 343 341 341 345 353 2 4 2 360 355 0
146 148 144 114 62 327 326 154 122 50 116 131 332 335 349 1 335 325 321 317 313 312 317 343 348 344 339 336 334 336 341 345 347 345 346 355 1 8 12 13 15 13 12
88 57 347 354 352 335 338 342 41 154 173 179 182 337 344 341 335 332 329 322 309 311 334 350 344 336 333 333 333 334 338 344 349 357 3 12 18 22 23 25 24 22 24
294 197 283 313 325 336 345 346 351 4 81 125 157 104 360 347 339 335 331 328 347 354 353 344 336 330 330 329 331 335 339 346 357 7 14 21 31 38 38 38 35 30 30
301 311 313 322 321 338 346 353 13 24 30 34 36 44 12 345 331 334 334 355 352 345 343 337 330 326 327 329 333 339 345 354 6 13 22 31 42 47 47 46 48 44 37
291 69 321 306 326 350 1 18 35 39 44 40 28 15 0 354 0 357 355 353 347 342 339 333 328 327 332 337 344 351 357 6 16 22 30 38 45 50 54 53 49 48 45
8 119 191 271 23 25 32 45 48 49 48 43 37 33 354 349 356 351 349 346 344 340 335 330 328 333 342 346 353 358 2 16 24 26 35 41 45 49 52 55 55 53 50
31 43 54 49 54 51 52 63 62 57 47 37 32 42 19 1 2 353 349 347 341 334 330 325 327 337 347 350 352 355 6 19 23 26 37 45 48 50 51 51 50 48 46
45 64 73 69 75 108 96 71 60 50 43 36 32 28 26 15 3 1 359 352 346 344 343 339 337 349 355 352 354 359 10 14 12 14 29 44 47 47 47 47 49 51 43
55 62 70 74 72 82 83 74 59 47 41 35 29 28 22 13 12 13 8 356 351 352 352 351 352 355 357 0 3 11 14 358 347 12 26 35 38 37 38 38 38 36 38
66 74 74 69 70 78 80 71 59 50 44 37 30 27 24 21 20 17 12 2 357 359 0 3 1 2 4 10 13 10 3 0 355 345 354 28 32 28 24 28 30 34 37
72 81 81 78 75 76 77 72 63 52 47 42 38 35 29 26 25 21 14 8 2 2 4 8 9 15 15 16 15 12 13 11 2 342 336 25 39 30 18 27 32 37 44
Height
1512 1515 1517 1520 1522 1525 1528 1531 1534 1537 1540 1542 1544 1545 1546 1547 1547 1547 1547 1546 1545 1544 1542 1540 1538 1536 1534 1531 1529 1527 1524 1520 1514 1509 1507 1502 1498 1493 1489 1485 1481 1476 1472
1515 1518 1520 1522 1525 1527 1530 1533 1536 1538 1541 1543 1544 1545 1546 1546 1546 1545 1545 1544 1543 1541 1538 1536 1534 1532 1529 1527 1524 1522 1518 1515 1510 1504 1500 1496 1492 1487 1482 1478 1474 1470 1465
1519 1521 1523 1525 1528 1530 1533 1535 1538 1540 1541 1543 1544 1544 1545 1544 1544 1543 1542 1540 1539 1537 1535 1532 1530 1527 1525 1523 1519 1516 1513 1509 1505 1500 1494 1490 1486 1482 1477 1472 1468 1463 1458
1522 1524 1526 1528 1530 1533 1535 1537 1539 1540 1542 1542 1543 1543 1543 1543 1542 1541 1539 1537 1535 1533 1531 1528 1526 1523 1521 1518 1515 1512 1508 1504 1500 1495 1490 1485 1481 1477 1472 1467 1461 1457 1452
1525 1527 1529 1531 1533 1535 1537 1538 1540 1541 1541 1542 1542 1542 1542 1541 1539 1537 1536 1535 1532 1530 1528 1525 1523 1519 1516 1513 1510 1507 1503 1499 1495 1490 1485 1480 1476 1471 1467 1461 1456 1451 1446
1528 1530 1531 1533 1535 1537 1538 1539 1540 1541 1541 1541 1541 1541 1540 1539 1536 1534 1532 1531 1529 1527 1525 1522 1519 1517 1513 1509 1506 1503 1499 1495 1490 1486 1480 1476 1471 1466 1461 1456 1451 1446 1440
1531 1532 1534 1535 1536 1538 1539 1539 1540 1541 1541 1541 1540 1540 1538 1535 1534 1532 1530 1528 1527 1524 1521 1518 1516 1514 1510 1507 1503 1498 1494 1490 1486 1482 1476 1471 1466 1461 1456 1451 1447 1442 1436
1533 1534 1535 1537 1538 1539 1540 1540 1541 1541 1541 1540 1539 1538 1537 1534 1532 1530 1528 1525 1524 1521 1518 1515 1513 1510 1507 1503 1498 1494 1490 1486 1482 1477 1471 1466 1461 1456 1452 1447 1442 1437 1432
1534 1536 1537 1539 1539 1540 1541 1541 1541 1541 1540 1540 1538 1537 1535 1533 1530 1527 1525 1522 1521 1518 1516 1513 1510 1508 1504 1500 1495 1490 1486 1481 1477 1471 1466 1460 1455 1451 1447 1443 1439 1435 1430
1537 1538 1540 1540 1541 1541 1541 1541 1541 1540 1540 1540 1538 1536 1534 1532 1528 1525 1522 1521 1518 1515 1513 1511 1508 1504 1501 1496 1492 1488 1483 1478 1472 1466 1461 1456 1451 1447 1443 1440 1437 1432 1428
1539 1540 1541 1541 1541 1541 1541 1541 1541 1541 1540 1538 1537 1535 1532 1530 1527 1523 1520 1518 1516 1513 1511 1508 1505 1501 1497 1494 1490 1486 1481 1475 1469 1464 1459 1453 1449 1445 1441 1438 1434 1431 1427
1541 1541 1542 1542 1543 1542 1542 1541 1541 1541 1540 1538 1536 1534 1532 1529 1525 1522 1519 1516 1513 1511 1509 1506 1503 1499 1495 1491 1488 1484 1479 1474 1469 1463 1458 1452 1448 1443 1440 1436 1433 1429 1425
1542 1542 1543 1543 1543 1543 1543 1542 1542 1540 1539 1537 1535 1533 1530 1527 1524 1521 1518 1515 1512 1509 1507 1504 1500 1497 1493 1490 1486 1482 1477 1473 1468 1463 1457 1453 1448 1443 1439 1435 1431 1428 1425
1543 1543 1543 1543 1543 1543 1543 1542 1541 1540 1538 1536 1534 1532 1529 1526 1523 1519 1516 1513 1511 1508 1506 1503 1499 1496 1493 1489 1485 1481 1476 1472 1467 1462 1457 1453 1448 1444 1439 1435 1432 1428 1425
1543 1544 1544 1544 1544 1543 1543 1542 1541 1539 1537 1535 1533 1530 1527 1525 1521 1518 1514 1512 1509 1507 1504 1502 1499 1496 1492 1488 1484 1480 1476 1472 1467 1462 1458 1453 1449 1445 1441 1437 1434 1431 1428
1544 1544 1544 1544 1543 1543 1542 1540 1538 1537 1535 1532 1530 1528 1526 1523 1520 1517 1514 1512 1509 1507 1504 1502 1499 1496 1492 1489 1485 1480 1476 1472 1467 1462 1458 1454 1450 1447 1443 1440 1437 1434 1431
1544 1544 1544 1543 1543 1542 1541 1539 1538 1535 1533 1531 1529 1527 1525 1522 1519 1517 1514 1512 1509 1507 1505 1502 1500 1497 1493 1490 1486 1482 1477 1473 1468 1464 1459 1455 1452 1449 1446 1444 1441 1438 1435
1544 1543 1543 1542 1542 1541 1539 1538 1537 1536 1534 1532 1530 1527 1525 1522 1519 1517 1514 1512 1510 1508 1505 1503 1500 1498 1494 1491 1487 1483 1479 1475 1471 1466 1462 1458 1455 1452 1450 1448 1445 1443 1440
1543 1543 1542 1541 1540 1539 1538 1537 1536 1535 1534 1532 1531 1528 1525 1522 1520 1517 1515 1513 1510 1508 1506 1504 1501 1499 1496 1492 1489 1485 1481 1477 1474 1470 1466 1462 1459 1456 1454 1452 1450 1447 1445
1542 1540 1540 1540 1539 1538 1537 1537 1536 1535 1534 1532 1530 1528 1525 1523 1520 1518 1515 1513 1511 1509 1507 1505 1503 1501 1498 1495 1492 1488 1484 1481 1477 1474 1470 1467 1464 1462 1459 1457 1455 1453 1450
1541 1540 1539 1539 1538 1538 1537 1537 1536 1535 1534 1532 1531 1528 1526 1524 1521 1519 1517 1514 1512 1510 1508 1507 1505 1503 1500 1497 1494 1490 1487 1484 1481 1479 1476 1473 1470 1467 1465 1463 1461 1458 1456
1540 1540 1539 1539 1538 1538 1538 1537 1537 1536 1535 1533 1532 1530 1527 1525 1523 1521 1518 1516 1514 1512 1510 1509 1507 1506 1503 1500 1496 1493 1491 1488 1486 1484 1482 1479 1477 1474 1472 1469 1467 1464 1462
1541 1540 1540 1539 1539 1538 1538 1538 1537 1536 1535 1534 1533 1531 1529 1527 1525 1523 1520 1517 1516 1514 1513 1512 1510 1509 1506 1503 1500 1497 1495 1492 1490 1488 1487 1485 1483 1480 1478 1476 1473 1470 1468
1541 1540 1540 1540 1539 1539 1539 1538 1538 1537 1536 1535 1534 1532 1531 1529 1527 1524 1522 1520 1518 1517 1516 1515 1513 1512 1509 1507 1504 1502 1499 1496 1494 1493 1492 1491 1488 1486 1484 1481 1479 1476 1473
1541 1541 1541 1540 1540 1539 1539 1539 1538 1538 1537 1536 1535 1534 1533 1531 1529 1526 1524 1522 1521 1520 1519 1518 1516 1515 1512 1510 1508 1505 1503 1501 1499 1497 1496 1495 1493 1491 1488 1486 1483 1481 1478
1542 1541 1541 1541 1540 1540 1540 1539 1539 1538 1538 1537 1536 1535 1534 1533 1531 1528 1526 1525 1524 1523 1522 1521 1519 1518 1515 1513 1511 1509 1507 1505 1503 1501 1500 1499 1497 1494 1492 1490 1488 1485 1483